Overview Statistics Trail Chart Weather Telemetry Raw packets
 

This is the latest recevied packets stored in our database for station/object WBKS. If no packets are shown the sender has not sent any packets the latest 24 hours.

If you compare the raw packets with similar data from other websites it may differ (especially the path), the reason is that we are not collecting packets from the same APRS-IS servers. Each APRS-IS server performes duplicate filtering, and which packet that is considered to be a duplicate may differ depending on which APRS-IS server you receive your data from.

<< 1 2 3 >>

1778130737: PJUWX-0>APRPJW,TCPIP*,qAC,APRPJU:;WBKS *T#737,130,79,5,0,126,00000000

1778130736: PJUWX-0>APRPJW,TCPIP*,qAC,APRPJU:;WBKS *070500z0554.10N/11802.92EW350/005 9M2PJU Airports WX (Fair) | 30C 79%RH | Load:0.23,0.30,0.35 | D:80% M:94% | UT:1400 days

1778127163: PJUWX-0>APRPJW,TCPIP*,qAC,APRPJU:;WBKS *T#161,130,74,4,0,125,00000000

1778127162: PJUWX-0>APRPJW,TCPIP*,qAC,APRPJU:;WBKS *070400z0554.10N/11802.92EW010/004 9M2PJU Airports WX (TS) | 30C 74%RH | Load:0.59,0.51,0.43 | D:80% M:94% | UT:1400 days

1778127162: PJUWX-0>APRPJW,TCPIP*,qAC,APRPJU:;WBKS *EQNS.0,1,-100,0,1,0,0,1,0,0,1,0,0,1,-100

1778127161: PJUWX-0>APRPJW,TCPIP*,qAC,APRPJU:;WBKS *UNIT.degC,%,kts,kts,degC

1778127161: PJUWX-0>APRPJW,TCPIP*,qAC,APRPJU:;WBKS *PARM.Temp,Humy,Wind,Gust,DewP

1778123534: PJUWX-0>APRPJW,TCPIP*,qAC,APRPJU:;WBKS *T#535,131,70,8,0,125,00000000

1778123534: PJUWX-0>APRPJW,TCPIP*,qAC,APRPJU:;WBKS *070300z0554.10N/11802.92EW020/008 9M2PJU Airports WX (VCSH) | 31C 70%RH | Load:0.37,0.46,0.40 | D:80% M:93% | UT:1400 days

1778119936: PJUWX-0>APRPJW,TCPIP*,qAC,APRPJU:;WBKS *T#936,130,79,5,0,126,00000000

1778119936: PJUWX-0>APRPJW,TCPIP*,qAC,APRPJU:;WBKS *070200z0554.10N/11802.92EW050/005 9M2PJU Airports WX (Fair) | 30C 79%RH | Load:0.34,0.49,0.51 | D:80% M:93% | UT:1400 days

1778116336: PJUWX-0>APRPJW,TCPIP*,qAC,APRPJU:;WBKS *T#336,130,79,2,0,126,00000000

1778116335: PJUWX-0>APRPJW,TCPIP*,qAC,APRPJU:;WBKS *070100z0554.10N/11802.92EW000/002 9M2PJU Airports WX (Fair) | 30C 79%RH | Load:0.36,0.34,0.39 | D:80% M:93% | UT:1400 days

1778112762: PJUWX-0>APRPJW,TCPIP*,qAC,APRPJU:;WBKS *T#761,129,83,4,0,126,00000000

1778112761: PJUWX-0>APRPJW,TCPIP*,qAC,APRPJU:;WBKS *070000z0554.10N/11802.92EW250/004 9M2PJU Airports WX (Fair) | 29C 83%RH | Load:0.48,0.49,0.44 | D:80% M:95% | UT:1400 days

1778112761: PJUWX-0>APRPJW,TCPIP*,qAC,APRPJU:;WBKS *EQNS.0,1,-100,0,1,0,0,1,0,0,1,0,0,1,-100

1778112760: PJUWX-0>APRPJW,TCPIP*,qAC,APRPJU:;WBKS *UNIT.degC,%,kts,kts,degC

1778112760: PJUWX-0>APRPJW,TCPIP*,qAC,APRPJU:;WBKS *PARM.Temp,Humy,Wind,Gust,DewP

1778109134: PJUWX-0>APRPJW,TCPIP*,qAC,APRPJU:;WBKS *T#134,127,88,4,0,125,00000000

1778109133: PJUWX-0>APRPJW,TCPIP*,qAC,APRPJU:;WBKS *062300z0554.10N/11802.92EW230/004 9M2PJU Airports WX (Fair) | 27C 88%RH | Load:0.50,0.44,0.43 | D:80% M:96% | UT:1400 days

1778105536: PJUWX-0>APRPJW,TCPIP*,qAC,APRPJU:;WBKS *T#536,126,94,3,0,125,00000000

1778105535: PJUWX-0>APRPJW,TCPIP*,qAC,APRPJU:;WBKS *062200z0554.10N/11802.92EW220/003 9M2PJU Airports WX (Fair) | 26C 94%RH | Load:0.39,0.53,0.50 | D:80% M:96% | UT:1400 days

1778101936: PJUWX-0>APRPJW,TCPIP*,qAC,APRPJU:;WBKS *T#936,126,94,4,0,125,00000000

1778101935: PJUWX-0>APRPJW,TCPIP*,qAC,APRPJU:;WBKS *062100z0554.10N/11802.92EW240/004 9M2PJU Airports WX (Fair) | 26C 94%RH | Load:0.30,0.37,0.38 | D:80% M:96% | UT:1400 days

1778098363: PJUWX-0>APRPJW,TCPIP*,qAC,APRPJU:;WBKS *T#362,126,100,5,0,126,00000000